Location: Leuk
(46.3174°N, 7.6341°E)
Time: 15:49:00
(UTC+00:00)

BREEZE-M DEB (TANK) - Pass Details

Date: 09 March 2021
Orbit: 310 x 13092 km, 49.6° (Epoch: 17 April)

Event Time Altitude Azimuth Distance (km) Brightness Sun altitude
Exits shadow 04:59:51 12° 282° (WNW) 2,100 5.2 -10.1°
Maximum altitude 05:03:34 46° 356° (N) 587 3.0 -9.5°
Drops below altitude 10° 05:05:50 10° 73° (ENE) 1,260 6.1 -9.1°
Sets 05:07:24 0° 81° (E) 2,031 8.0 -8.8°
